CZ-6A DEB, 54413

Orbit data source: Space-Track

CZ-6A DEB, 54413 is space debris in SSO originally from a launch on Fri, 11 Nov 2022 UTC launched from the Taiyaun Space Center, China (TSC). Debris objects in space refer to the collection of defunct objects orbiting the Earth. Examples of debris include non-operational satellites, rocket bodies, and fragments generated from explosions, collisions, or faulty payload assembly.

Loading next visibility...
Identifier
54413, 2022-151EM
Orbit
SSO
Country
Flag of CNCN / PRC
Related business
Manufacturer
SAST
Mission
Spacecraft
Bus & Motor
Unknown
Mass
Unknown
Launch date (UTC)
2022-11-11 (4 years ago)
Launch vehicle
Unknown
Launch site
Taiyaun Space Center, China (TSC)
Object type
Payload
Rocket body
Debris
Shape & HBR
Unknown shape, 0.1 m
Radar Cross Section
Medium (>0.1 m² and <1 m²)

Expand to show TLE details & history
Last TLE update: 4 hours ago

TLE from 4 hours ago
0 CZ-6A DEB
1 54413U 22151EM  26254.77066152  .00045531  00000-0  14511-2 0  9993
2 54413  98.8306  70.7707 0051510 102.7406 257.9595 15.31086369207444
Epoch: 2026-09-11T18:29Z
TLE epoch observation values (Epoch: 2026-09-11T18:29:45.155Z)
Latitude
-0°
Longitude
162.54331°
Altitude
483.167 km
Speed
7.62 km/s
True Right ascension
04h 43m 04s
True Declination
0° 00' 00"
Sunlit
Object was in daylight at epoch
Visualization orbit readout
Latitude
Unknown
Longitude
Unknown
Altitude
Unknown
Speed
Unknown
Apparent Right ascension
Unknown
Apparent Declination
Unknown
Sunlit
N/A
Visualization observer readout
Local Sidereal Time
15:08:26
Azimuth
Unknown
Elevation
Unknown
Doppler factor
Unknown
Orbital elements
Apogee altitude
504.86 km
Perigee altitude
434.315 km
Semi-major axis
6,847.725 km
Eccentricity
0.00515
Inclination
98.8306°
RAAN
70.7707°
Arg. of periapsis
102.7406°
True anomaly
257.38301°
Mean anomaly
257.9595°
Eccentric anomaly
257.67118°
Mean motion
3.83022 °/min
Orbital period
93.99 mins
BSTAR
0.0014511
Loading maneuver chart data...
Computing Atmospheric mass density...

Documentation

Showing up to 5 results
|